Date,TemperatureHighF,TemperatureAvgF,TemperatureLowF,DewpointHighF,DewpointAvgF,DewpointLowF,HumidityHigh,HumidityAvg,HumidityLow,PressureMaxIn,PressureMinIn,WindSpeedMaxMPH,WindSpeedAvgMPH,GustSpeedMaxMPH,PrecipitationSumIn
2013-10-1,51,48,46,-100,-100,-100,0,0,100,0.00,40.00,0,-999,0,0.00
2013-10-2,52,40,30,-100,-100,-100,0,0,100,0.00,40.00,0,-999,0,0.05
2013-10-3,36,32,27,-100,-100,-100,0,0,100,0.00,40.00,0,-999,0,0.43
2013-10-4,39,30,23,-100,-100,-100,0,0,100,0.00,40.00,0,-999,0,0.07
2013-10-5,44,26,12,-100,-100,-100,0,0,100,0.00,40.00,0,-999,0,0.03
2013-10-6,56,34,19,-100,-100,-100,0,0,100,0.00,40.00,0,-999,0,0.01
2013-10-7,61,36,21,-100,-100,-100,0,0,100,0.00,40.00,0,-999,0,0.01
2013-10-8,47,34,26,-100,-100,-100,0,0,100,0.00,40.00,0,-999,0,0.01
2013-10-9,53,35,20,-100,-100,-100,0,0,100,0.00,40.00,0,-999,0,0.01
2013-10-10,53,37,27,-100,-100,-100,0,0,100,0.00,40.00,0,-999,0,0.18
2013-10-11,44,35,26,-100,-100,-100,0,0,100,0.00,40.00,0,-999,0,0.23
2013-10-12,37,29,20,-100,-100,-100,0,0,100,0.00,40.00,0,-999,0,0.06
2013-10-13,43,34,27,-100,-100,-100,0,0,100,0.00,40.00,0,-999,0,0.23
2013-10-14,35,32,28,-100,-100,-100,0,0,100,0.00,40.00,0,-999,0,0.20
2013-10-15,44,29,19,-100,-100,-100,0,0,100,0.00,40.00,0,-999,0,0.02
2013-10-16,41,27,14,-100,-100,-100,0,0,100,0.00,40.00,0,-999,0,0.04
2013-10-17,40,32,27,-100,-100,-100,0,0,100,0.00,40.00,0,-999,0,0.01
2013-10-18,42,30,18,-100,-100,-100,0,0,100,0.00,40.00,0,-999,0,0.01
2013-10-19,47,31,18,-100,-100,-100,0,0,100,0.00,40.00,0,-999,0,0.01
2013-10-20,47,35,25,-100,-100,-100,0,0,100,0.00,40.00,0,-999,0,0.02
2013-10-21,52,32,18,-100,-100,-100,0,0,100,0.00,40.00,0,-999,0,0.03
2013-10-22,57,34,20,-100,-100,-100,0,0,100,0.00,40.00,0,-999,0,0.02
2013-10-23,59,33,19,-100,-100,-100,0,0,100,0.00,40.00,0,-999,0,0.01
2013-10-24,60,33,19,-100,-100,-100,0,0,100,0.00,40.00,0,-999,0,0.03
2013-10-25,60,36,18,-100,-100,-100,0,0,100,0.00,40.00,0,-999,0,0.03
2013-10-26,57,33,19,-100,-100,-100,0,0,100,0.00,40.00,0,-999,0,0.01
2013-10-27,55,35,17,-100,-100,-100,0,0,100,0.00,40.00,0,-999,0,0.01
2013-10-28,40,35,27,-100,-100,-100,0,0,100,0.00,40.00,0,-999,0,0.05
2013-10-29,33,29,23,-100,-100,-100,0,0,100,0.00,40.00,0,-999,0,0.25
2013-10-30,32,30,29,-100,-100,-100,0,0,100,0.00,40.00,0,-999,0,0.30
2013-10-31,33,30,28,-100,-100,-100,0,0,100,0.00,40.00,0,-999,0,0.35